| time (UTC) | temp F | wind direction | speed knots | gust knots | rain 1hr in | rain 24hr in | rain mn in | humidity % | barometer mb |
| 20260506103029 | 50 | 221 | 1.7 | 4.3 | 0.00 | 0.00 | 0.00 | 91 | 1016.7 |
| 20260506102511 | 50 | 211 | 1.7 | 4.3 | 0.00 | 0.00 | 0.00 | 91 | 1016.6 |
| 20260506102011 | 50 | 192 | 1.7 | 4.3 | 0.00 | 0.00 | 0.00 | 91 | 1016.5 |
| 20260506101526 | 50 | 190 | 1.7 | 4.3 | 0.00 | 0.00 | 0.00 | 91 | 1016.5 |
| 20260506101015 | 50 | 204 | 1.7 | 4.3 | 0.00 | 0.00 | 0.00 | 92 | 1016.5 |
| 20260506100508 | 50 | 209 | 1.7 | 4.3 | 0.00 | 0.00 | 0.00 | 92 | 1016.5 |
| 20260506100026 | 50 | 0 | 1.7 | 5.2 | 0.00 | 0.00 | 0.00 | 92 | 1016.5 |
| 20260506095508 | 50 | 220 | 1.7 | 5.2 | 0.00 | 0.00 | 0.00 | 92 | 1016.4 |
| 20260506095009 | 50 | 219 | 0.9 | 4.3 | 0.00 | 0.00 | 0.00 | 92 | 1016.3 |
| 20260506094529 | 50 | 195 | 0.9 | 3.5 | 0.00 | 0.00 | 0.00 | 92 | 1016.4 |
| 20260506094008 | 50 | 197 | 0.9 | 3.5 | 0.00 | 0.00 | 0.00 | 92 | 1016.4 |
| 20260506093511 | 49 | 200 | 1.7 | 3.5 | 0.00 | 0.00 | 0.00 | 92 | 1016.1 |
| 20260506093047 | 49 | 0 | 0.0 | 2.6 | 0.00 | 0.00 | 0.00 | 92 | 1016.2 |
| 20260506092510 | 49 | 0 | 0.0 | 2.6 | 0.00 | 0.00 | 0.00 | 91 | 1016.1 |
| 20260506092013 | 49 | 196 | 0.0 | 1.7 | 0.00 | 0.00 | 0.00 | 91 | 1016.1 |
| 20260506091526 | 50 | 0 | 0.0 | 1.7 | 0.00 | 0.00 | 0.00 | 91 | 1016.1 |
| 20260506091008 | 50 | 196 | 0.0 | 2.6 | 0.00 | 0.00 | 0.00 | 91 | 1016.0 |
| 20260506090508 | 50 | 196 | 0.9 | 2.6 | 0.00 | 0.00 | 0.00 | 90 | 1016.0 |
| 20260506090027 | 50 | 196 | 0.9 | 2.6 | 0.00 | 0.00 | 0.00 | 90 | 1016.1 |
| 20260506085508 | 50 | 196 | 0.9 | 2.6 | 0.00 | 0.00 | 0.00 | 90 | 1016.1 |
| 20260506085008 | 50 | 0 | 0.0 | 0.9 | 0.00 | 0.00 | 0.00 | 89 | 1016.0 |
| 20260506084527 | 50 | 0 | 0.0 | 0.0 | 0.00 | 0.00 | 0.00 | 89 | 1016.0 |
| 20260506084008 | 50 | 0 | 0.0 | 0.0 | 0.00 | 0.00 | 0.00 | 89 | 1016.0 |
| 20260506083510 | 50 | 0 | 0.0 | 0.0 | 0.00 | 0.00 | 0.00 | 88 | 1016.0 |
| 20260506083026 | 51 | 0 | 0.0 | 0.0 | 0.00 | 0.00 | 0.00 | 88 | 1016.0 |
| 20260506082513 | 51 | 0 | 0.0 | 0.0 | 0.00 | 0.00 | 0.00 | 88 | 1016.0 |
| 20260506082013 | 51 | 0 | 0.0 | 0.0 | 0.00 | 0.00 | 0.00 | 88 | 1016.0 |
| 20260506081528 | 52 | 0 | 0.0 | 0.9 | 0.00 | 0.00 | 0.00 | 87 | 1015.9 |
| 20260506081011 | 52 | 0 | 0.0 | 0.9 | 0.00 | 0.00 | 0.00 | 86 | 1015.8 |
| 20260506080511 | 52 | 0 | 0.0 | 1.7 | 0.00 | 0.00 | 0.00 | 87 | 1015.8 |
| 20260506073514 | 54 | 192 | 1.7 | 5.2 | 0.00 | 0.00 | 0.00 | 85 | 1015.5 |
| 20260506073026 | 54 | 221 | 1.7 | 4.3 | 0.00 | 0.00 | 0.00 | 85 | 1015.5 |
| 20260506072512 | 54 | 197 | 1.7 | 5.2 | 0.00 | 0.00 | 0.00 | 85 | 1015.5 |
| 20260506072015 | 54 | 183 | 2.6 | 5.2 | 0.00 | 0.00 | 0.00 | 85 | 1015.4 |
| 20260506071528 | 54 | 200 | 1.7 | 4.3 | 0.00 | 0.00 | 0.00 | 85 | 1015.3 |
| 20260506071010 | 54 | 226 | 1.7 | 5.2 | 0.00 | 0.00 | 0.00 | 85 | 1015.3 |
| 20260506070511 | 54 | 201 | 1.7 | 5.2 | 0.00 | 0.00 | 0.00 | 85 | 1015.3 |
| 20260506062510 | 55 | 194 | 3.5 | 7.0 | 0.00 | 0.00 | 0.00 | 83 | 1015.1 |
| 20260506062011 | 55 | 211 | 1.7 | 5.2 | 0.00 | 0.00 | 0.00 | 83 | 1015.1 |
| 20260506061527 | 55 | 200 | 2.6 | 7.0 | 0.00 | 0.00 | 0.00 | 83 | 1015.1 |
| 20260506061010 | 55 | 180 | 1.7 | 7.8 | 0.00 | 0.00 | 0.00 | 83 | 1015.0 |
| 20260506060508 | 56 | 221 | 2.6 | 7.8 | 0.00 | 0.00 | 0.00 | 83 | 1015.1 |
| 20260506051011 | 56 | 194 | 2.6 | 6.1 | 0.00 | 0.00 | 0.00 | 81 | 1014.9 |
| 20260506050510 | 56 | 225 | 2.6 | 5.2 | 0.00 | 0.00 | 0.00 | 81 | 1015.0 |
| 20260506045010 | 57 | 227 | 2.6 | 7.8 | 0.00 | 0.00 | 0.00 | 80 | 1014.8 |
| 20260506044525 | 57 | 228 | 2.6 | 7.8 | 0.00 | 0.00 | 0.00 | 80 | 1014.8 |
| 20260506044011 | 57 | 220 | 2.6 | 7.8 | 0.00 | 0.00 | 0.00 | 80 | 1014.7 |
| 20260506043515 | 57 | 232 | 3.5 | 7.8 | 0.00 | 0.00 | 0.00 | 80 | 1014.6 |
| 20260506043027 | 57 | 193 | 3.5 | 8.7 | 0.00 | 0.00 | 0.00 | 79 | 1014.6 |
| 20260506042510 | 57 | 209 | 4.3 | 8.7 | 0.00 | 0.00 | 0.00 | 79 | 1014.6 |
| 20260506042012 | 57 | 197 | 2.6 | 8.7 | 0.00 | 0.00 | 0.00 | 79 | 1014.4 |
| 20260506041526 | 57 | 200 | 5.2 | 8.7 | 0.00 | 0.00 | 0.00 | 79 | 1014.4 |
| 20260506041008 | 57 | 215 | 3.5 | 7.0 | 0.00 | 0.00 | 0.00 | 79 | 1014.3 |
| 20260506040512 | 57 | 211 | 3.5 | 6.1 | 0.00 | 0.00 | 0.00 | 79 | 1014.3 |
| 20260506040030 | 58 | 213 | 3.5 | 6.1 | 0.00 | 0.00 | 0.00 | 79 | 1014.2 |
| 20260506035510 | 58 | 208 | 2.6 | 7.0 | 0.00 | 0.00 | 0.00 | 79 | 1014.2 |
| 20260506035012 | 58 | 209 | 3.5 | 7.0 | 0.00 | 0.00 | 0.00 | 79 | 1014.1 |
| 20260506034530 | 58 | 211 | 1.7 | 7.0 | 0.00 | 0.00 | 0.00 | 79 | 1014.0 |
| 20260506034013 | 58 | 205 | 3.5 | 7.8 | 0.00 | 0.00 | 0.00 | 78 | 1014.0 |
| 20260506033512 | 58 | 228 | 2.6 | 7.8 | 0.00 | 0.00 | 0.00 | 78 | 1014.0 |
| 20260506033026 | 59 | 211 | 2.6 | 6.1 | 0.00 | 0.00 | 0.00 | 77 | 1014.0 |
| 20260506032509 | 59 | 234 | 2.6 | 6.1 | 0.00 | 0.00 | 0.00 | 77 | 1014.0 |
| 20260506032011 | 59 | 203 | 1.7 | 7.0 | 0.00 | 0.00 | 0.00 | 76 | 1014.0 |
| 20260506031528 | 60 | 243 | 3.5 | 7.0 | 0.00 | 0.00 | 0.00 | 75 | 1013.9 |
| 20260506031013 | 60 | 205 | 2.6 | 9.6 | 0.00 | 0.00 | 0.00 | 75 | 1013.9 |
| 20260506030513 | 61 | 236 | 3.5 | 9.6 | 0.00 | 0.00 | 0.00 | 74 | 1013.8 |
| 20260506030033 | 61 | 224 | 2.6 | 6.1 | 0.00 | 0.00 | 0.00 | 74 | 1013.8 |
| 20260506025513 | 61 | 204 | 1.7 | 7.8 | 0.00 | 0.00 | 0.00 | 74 | 1013.8 |
| 20260506025013 | 62 | 194 | 4.3 | 7.8 | 0.00 | 0.00 | 0.00 | 73 | 1013.9 |
| 20260506024529 | 62 | 219 | 2.6 | 12.2 | 0.00 | 0.00 | 0.00 | 73 | 1013.8 |
| 20260506024010 | 62 | 239 | 6.1 | 12.2 | 0.00 | 0.00 | 0.00 | 72 | 1013.8 |
| 20260506023511 | 63 | 207 | 4.3 | 9.6 | 0.00 | 0.00 | 0.00 | 71 | 1013.8 |
| 20260506023030 | 63 | 236 | 2.6 | 9.6 | 0.00 | 0.00 | 0.00 | 71 | 1013.8 |
| 20260506022512 | 63 | 188 | 4.3 | 9.6 | 0.00 | 0.00 | 0.00 | 70 | 1013.8 |
| 20260506022013 | 63 | 221 | 4.3 | 13.0 | 0.00 | 0.00 | 0.00 | 70 | 1013.9 |
| 20260506021527 | 64 | 225 | 5.2 | 13.0 | 0.00 | 0.00 | 0.00 | 69 | 1013.8 |
| 20260506021011 | 64 | 259 | 6.1 | 11.3 | 0.00 | 0.00 | 0.00 | 69 | 1013.9 |
| 20260506020512 | 64 | 220 | 2.6 | 9.6 | 0.00 | 0.00 | 0.00 | 69 | 1014.0 |
| 20260506020053 | 64 | 188 | 6.1 | 12.2 | 0.00 | 0.00 | 0.00 | 68 | 1013.9 |
| 20260506015513 | 64 | 195 | 4.3 | 12.2 | 0.00 | 0.00 | 0.00 | 69 | 1013.9 |
| 20260506015016 | 64 | 208 | 6.1 | 12.2 | 0.00 | 0.00 | 0.00 | 68 | 1013.9 |
| 20260506014527 | 64 | 222 | 6.1 | 11.3 | 0.00 | 0.00 | 0.00 | 68 | 1013.9 |
| 20260506014012 | 64 | 225 | 5.2 | 14.8 | 0.00 | 0.00 | 0.00 | 68 | 1014.0 |
| 20260506013514 | 64 | 205 | 5.2 | 14.8 | 0.00 | 0.00 | 0.00 | 67 | 1014.0 |
| 20260506013027 | 64 | 208 | 6.1 | 13.9 | 0.00 | 0.00 | 0.00 | 67 | 1014.0 |
| 20260506012511 | 64 | 219 | 4.3 | 13.9 | 0.00 | 0.00 | 0.00 | 68 | 1013.9 |
| 20260506012012 | 65 | 190 | 6.1 | 13.0 | 0.00 | 0.00 | 0.00 | 67 | 1013.9 |
| 20260506011533 | 64 | 181 | 4.3 | 13.0 | 0.00 | 0.00 | 0.00 | 69 | 1013.8 |
| 20260506011010 | 64 | 225 | 6.1 | 15.6 | 0.00 | 0.00 | 0.00 | 69 | 1014.0 |
| 20260506010511 | 64 | 231 | 5.2 | 15.6 | 0.00 | 0.00 | 0.00 | 70 | 1013.9 |
| 20260506010030 | 64 | 235 | 7.8 | 13.0 | 0.00 | 0.00 | 0.00 | 69 | 1013.9 |
| 20260506005517 | 65 | 175 | 5.2 | 12.2 | 0.00 | 0.00 | 0.00 | 69 | 1013.9 |
| 20260506005012 | 65 | 229 | 6.1 | 10.4 | 0.00 | 0.00 | 0.00 | 69 | 1014.0 |
| 20260506004539 | 65 | 250 | 3.5 | 13.9 | 0.00 | 0.00 | 0.00 | 69 | 1013.9 |
| 20260506004012 | 65 | 226 | 6.1 | 13.9 | 0.00 | 0.00 | 0.00 | 68 | 1013.9 |
| 20260506003512 | 66 | 276 | 5.2 | 11.3 | 0.00 | 0.00 | 0.00 | 69 | 1014.0 |
| 20260506003027 | 66 | 225 | 7.0 | 12.2 | 0.00 | 0.00 | 0.00 | 68 | 1014.0 |
| 20260506002512 | 66 | 216 | 5.2 | 12.2 | 0.00 | 0.00 | 0.00 | 68 | 1014.1 |
| 20260506002011 | 66 | 211 | 3.5 | 9.6 | 0.00 | 0.00 | 0.00 | 68 | 1014.0 |
| 20260506001527 | 66 | 219 | 4.3 | 12.2 | 0.00 | 0.00 | 0.00 | 70 | 1014.0 |
| 20260506001012 | 66 | 221 | 5.2 | 12.2 | 0.00 | 0.00 | 0.00 | 70 | 1014.1 |
| 20260506000511 | 65 | 188 | 2.6 | 13.0 | 0.00 | 0.00 | 0.00 | 70 | 1014.2 |
| 20260506000042 | 65 | 248 | 5.2 | 13.0 | 0.00 | 0.00 | 0.00 | 72 | 1014.2 |
| 20260505235516 | 65 | 213 | 5.2 | 12.2 | 0.00 | 0.00 | 0.00 | 70 | 1014.3 |
| 20260505235013 | 65 | 207 | 6.1 | 12.2 | 0.00 | 0.00 | 0.00 | 70 | 1014.2 |
| 20260505234528 | 65 | 184 | 7.0 | 13.0 | 0.00 | 0.00 | 0.00 | 69 | 1014.4 |
| 20260505234013 | 65 | 201 | 5.2 | 13.0 | 0.00 | 0.00 | 0.00 | 71 | 1014.3 |
| 20260505233513 | 65 | 196 | 7.0 | 13.0 | 0.00 | 0.00 | 0.00 | 69 | 1014.4 |
| 20260505233030 | 66 | 173 | 4.3 | 12.2 | 0.00 | 0.00 | 0.00 | 70 | 1014.3 |
| 20260505232512 | 66 | 190 | 7.0 | 12.2 | 0.00 | 0.00 | 0.00 | 69 | 1014.5 |
| 20260505232012 | 66 | 206 | 3.5 | 9.6 | 0.00 | 0.00 | 0.00 | 69 | 1014.4 |
| 20260505231531 | 66 | 221 | 3.5 | 9.6 | 0.00 | 0.00 | 0.00 | 69 | 1014.5 |
| 20260505231012 | 66 | 236 | 3.5 | 13.9 | 0.00 | 0.00 | 0.00 | 71 | 1014.5 |
| 20260505230512 | 66 | 240 | 3.5 | 13.9 | 0.00 | 0.00 | 0.00 | 71 | 1014.5 |
| 20260505230040 | 65 | 181 | 6.1 | 12.2 | 0.00 | 0.00 | 0.00 | 71 | 1014.5 |
| 20260505225511 | 65 | 175 | 6.1 | 12.2 | 0.00 | 0.00 | 0.00 | 71 | 1014.6 |
| 20260505225016 | 65 | 229 | 6.1 | 12.2 | 0.00 | 0.00 | 0.00 | 71 | 1014.6 |
| 20260505224537 | 65 | 189 | 6.1 | 13.0 | 0.00 | 0.00 | 0.00 | 70 | 1014.7 |
| 20260505224011 | 65 | 238 | 7.0 | 13.0 | 0.00 | 0.00 | 0.00 | 69 | 1014.7 |
| 20260505223513 | 66 | 226 | 6.1 | 14.8 | 0.00 | 0.00 | 0.00 | 71 | 1014.9 |
| 20260505223034 | 66 | 219 | 8.7 | 14.8 | 0.00 | 0.00 | 0.00 | 69 | 1014.8 |
| 20260505222515 | 66 | 229 | 5.2 | 13.0 | 0.00 | 0.00 | 0.00 | 69 | 1014.9 |
| 20260505222015 | 66 | 196 | 6.1 | 12.2 | 0.00 | 0.00 | 0.00 | 69 | 1014.9 |
| 20260505221530 | 66 | 212 | 6.1 | 13.0 | 0.00 | 0.00 | 0.00 | 69 | 1015.0 |
| 20260505221012 | 66 | 236 | 2.6 | 13.0 | 0.00 | 0.00 | 0.00 | 70 | 1015.0 |
| 20260505220512 | 66 | 197 | 5.2 | 11.3 | 0.00 | 0.00 | 0.00 | 69 | 1015.0 |
| 20260505220027 | 66 | 213 | 7.0 | 11.3 | 0.00 | 0.00 | 0.00 | 68 | 1015.0 |
| 20260505215514 | 67 | 218 | 4.3 | 13.9 | 0.00 | 0.00 | 0.00 | 67 | 1015.0 |
| 20260505215011 | 67 | 217 | 7.0 | 13.0 | 0.00 | 0.00 | 0.00 | 68 | 1015.0 |
| 20260505214530 | 67 | 253 | 5.2 | 13.0 | 0.00 | 0.00 | 0.00 | 69 | 1015.0 |
| 20260505214014 | 66 | 246 | 4.3 | 11.3 | 0.00 | 0.00 | 0.00 | 69 | 1015.0 |
| 20260505213513 | 66 | 194 | 6.1 | 11.3 | 0.00 | 0.00 | 0.00 | 68 | 1015.1 |
| 20260505213028 | 67 | 219 | 5.2 | 13.9 | 0.00 | 0.00 | 0.00 | 68 | 1015.1 |
| 20260505212510 | 67 | 211 | 5.2 | 13.9 | 0.00 | 0.00 | 0.00 | 70 | 1015.1 |
| 20260505212015 | 66 | 254 | 7.0 | 13.0 | 0.00 | 0.00 | 0.00 | 69 | 1015.2 |
| 20260505211532 | 66 | 214 | 6.1 | 12.2 | 0.00 | 0.00 | 0.00 | 69 | 1015.2 |
| 20260505211009 | 65 | 251 | 5.2 | 13.0 | 0.00 | 0.00 | 0.00 | 69 | 1015.2 |
| 20260505210513 | 65 | 209 | 7.0 | 13.9 | 0.00 | 0.00 | 0.00 | 69 | 1015.2 |
| 20260505210032 | 65 | 223 | 5.2 | 13.9 | 0.00 | 0.00 | 0.00 | 71 | 1015.3 |
| 20260505205517 | 65 | 217 | 7.8 | 13.0 | 0.00 | 0.00 | 0.00 | 69 | 1015.3 |
| 20260505205009 | 65 | 177 | 5.2 | 13.0 | 0.00 | 0.00 | 0.00 | 69 | 1015.4 |
| 20260505204530 | 66 | 198 | 3.5 | 11.3 | 0.00 | 0.00 | 0.00 | 71 | 1015.4 |
| 20260505204009 | 65 | 232 | 4.3 | 11.3 | 0.00 | 0.00 | 0.00 | 71 | 1015.4 |
| 20260505203510 | 66 | 188 | 5.2 | 11.3 | 0.00 | 0.00 | 0.00 | 68 | 1015.4 |
| 20260505203027 | 66 | 167 | 5.2 | 12.2 | 0.00 | 0.00 | 0.00 | 68 | 1015.4 |
| 20260505202512 | 66 | 214 | 6.1 | 12.2 | 0.00 | 0.00 | 0.00 | 71 | 1015.4 |
| 20260505202012 | 66 | 178 | 2.6 | 10.4 | 0.00 | 0.00 | 0.00 | 72 | 1015.4 |
| 20260505201528 | 65 | 208 | 4.3 | 10.4 | 0.00 | 0.00 | 0.00 | 69 | 1015.4 |
| 20260505201009 | 65 | 214 | 4.3 | 11.3 | 0.00 | 0.00 | 0.00 | 71 | 1015.4 |
| 20260505200511 | 65 | 216 | 5.2 | 13.9 | 0.00 | 0.00 | 0.00 | 70 | 1015.4 |
| 20260505200032 | 65 | 204 | 5.2 | 13.9 | 0.00 | 0.00 | 0.00 | 74 | 1015.5 |
| 20260505195512 | 65 | 242 | 3.5 | 11.3 | 0.00 | 0.00 | 0.00 | 72 | 1015.5 |
| 20260505195010 | 65 | 197 | 3.5 | 9.6 | 0.00 | 0.00 | 0.00 | 73 | 1015.5 |
| 20260505194528 | 65 | 247 | 2.6 | 10.4 | 0.00 | 0.00 | 0.00 | 73 | 1015.6 |
| 20260505194016 | 65 | 196 | 3.5 | 10.4 | 0.00 | 0.00 | 0.00 | 74 | 1015.5 |
| 20260505193514 | 65 | 211 | 5.2 | 9.6 | 0.00 | 0.00 | 0.00 | 73 | 1015.5 |
| 20260505193029 | 64 | 191 | 3.5 | 8.7 | 0.00 | 0.00 | 0.00 | 74 | 1015.4 |
| 20260505192511 | 64 | 236 | 2.6 | 9.6 | 0.00 | 0.00 | 0.00 | 75 | 1015.4 |
| 20260505192012 | 64 | 248 | 3.5 | 10.4 | 0.00 | 0.00 | 0.00 | 73 | 1015.5 |
| 20260505191533 | 64 | 246 | 4.3 | 10.4 | 0.00 | 0.00 | 0.00 | 74 | 1015.4 |
| 20260505191013 | 64 | 207 | 6.1 | 12.2 | 0.00 | 0.00 | 0.00 | 74 | 1015.4 |
| 20260505190511 | 63 | 242 | 6.1 | 12.2 | 0.00 | 0.00 | 0.00 | 73 | 1015.3 |
| 20260505190033 | 63 | 254 | 5.2 | 11.3 | 0.00 | 0.00 | 0.00 | 73 | 1015.4 |
| 20260505185514 | 64 | 230 | 3.5 | 10.4 | 0.00 | 0.00 | 0.00 | 75 | 1015.4 |
| 20260505185009 | 64 | 208 | 3.5 | 9.6 | 0.00 | 0.00 | 0.00 | 73 | 1015.4 |
| 20260505184546 | 64 | 207 | 6.1 | 11.3 | 0.00 | 0.00 | 0.00 | 72 | 1015.4 |
| 20260505184010 | 64 | 247 | 2.6 | 11.3 | 0.00 | 0.00 | 0.00 | 76 | 1015.4 |
| 20260505183509 | 64 | 227 | 3.5 | 10.4 | 0.00 | 0.00 | 0.00 | 75 | 1015.4 |
| 20260505183027 | 63 | 250 | 0.9 | 7.0 | 0.00 | 0.00 | 0.00 | 78 | 1015.4 |
| 20260505182508 | 63 | 211 | 2.6 | 8.7 | 0.00 | 0.00 | 0.00 | 75 | 1015.3 |
| 20260505182018 | 63 | 227 | 4.3 | 11.3 | 0.00 | 0.00 | 0.00 | 77 | 1015.4 |
| 20260505181526 | 63 | 244 | 3.5 | 11.3 | 0.00 | 0.00 | 0.00 | 74 | 1015.4 |
| 20260505181012 | 64 | 216 | 3.5 | 7.0 | 0.00 | 0.00 | 0.00 | 73 | 1015.4 |
| 20260505180512 | 64 | 244 | 2.6 | 5.2 | 0.00 | 0.00 | 0.00 | 72 | 1015.3 |
| 20260505180028 | 64 | 247 | 1.7 | 8.7 | 0.00 | 0.00 | 0.00 | 75 | 1015.2 |
| 20260505175512 | 64 | 251 | 3.5 | 8.7 | 0.00 | 0.00 | 0.00 | 74 | 1015.3 |
| 20260505175009 | 64 | 229 | 2.6 | 8.7 | 0.00 | 0.00 | 0.00 | 75 | 1015.3 |
| 20260505174536 | 63 | 233 | 4.3 | 8.7 | 0.00 | 0.00 | 0.00 | 75 | 1015.3 |
| 20260505174010 | 63 | 224 | 2.6 | 8.7 | 0.00 | 0.00 | 0.00 | 75 | 1015.2 |
| 20260505173509 | 63 | 247 | 1.7 | 7.8 | 0.00 | 0.00 | 0.00 | 76 | 1015.4 |
| 20260505173025 | 63 | 215 | 3.5 | 8.7 | 0.00 | 0.00 | 0.00 | 76 | 1015.4 |
| 20260505172512 | 63 | 186 | 4.3 | 8.7 | 0.00 | 0.00 | 0.00 | 74 | 1015.4 |
| 20260505172010 | 63 | 232 | 1.7 | 10.4 | 0.00 | 0.00 | 0.00 | 76 | 1015.3 |
| 20260505171536 | 63 | 239 | 4.3 | 10.4 | 0.00 | 0.00 | 0.00 | 76 | 1015.3 |
| 20260505171008 | 63 | 236 | 1.7 | 7.8 | 0.00 | 0.00 | 0.00 | 76 | 1015.2 |
| 20260505170509 | 62 | 247 | 2.6 | 7.8 | 0.00 | 0.00 | 0.00 | 76 | 1015.2 |
| 20260505170025 | 63 | 190 | 2.6 | 6.1 | 0.00 | 0.00 | 0.00 | 73 | 1015.3 |
| 20260505165510 | 63 | 247 | 2.6 | 6.1 | 0.00 | 0.00 | 0.00 | 75 | 1015.2 |
| 20260505165011 | 63 | 254 | 1.7 | 6.1 | 0.00 | 0.00 | 0.00 | 76 | 1015.1 |
| 20260505164527 | 62 | 233 | 1.7 | 7.0 | 0.00 | 0.00 | 0.00 | 77 | 1015.2 |
| 20260505164011 | 62 | 228 | 2.6 | 8.7 | 0.00 | 0.00 | 0.00 | 78 | 1015.1 |
| 20260505163507 | 61 | 227 | 3.5 | 8.7 | 0.00 | 0.00 | 0.00 | 77 | 1015.0 |
| 20260505163030 | 62 | 200 | 3.5 | 7.8 | 0.00 | 0.00 | 0.00 | 76 | 1015.2 |
| 20260505162511 | 62 | 195 | 0.9 | 3.5 | 0.00 | 0.00 | 0.00 | 78 | 1015.1 |
| 20260505162010 | 61 | 243 | 1.7 | 7.0 | 0.00 | 0.00 | 0.00 | 77 | 1015.1 |
| 20260505161528 | 61 | 252 | 1.7 | 7.8 | 0.00 | 0.00 | 0.00 | 80 | 1015.1 |
| 20260505161008 | 60 | 219 | 4.3 | 7.8 | 0.00 | 0.00 | 0.00 | 78 | 1015.0 |
| 20260505160518 | 60 | 212 | 2.6 | 7.0 | 0.00 | 0.00 | 0.00 | 79 | 1015.0 |
| 20260505153036 | 59 | 232 | 3.5 | 7.8 | 0.00 | 0.00 | 0.00 | 80 | 1014.9 |
| 20260505152511 | 59 | 214 | 3.5 | 7.8 | 0.00 | 0.00 | 0.00 | 80 | 1015.0 |
| 20260505152012 | 59 | 194 | 1.7 | 6.1 | 0.00 | 0.00 | 0.00 | 81 | 1015.0 |
| 20260505151527 | 59 | 270 | 1.7 | 5.2 | 0.00 | 0.00 | 0.00 | 80 | 1014.8 |
| 20260505151012 | 59 | 212 | 2.6 | 7.8 | 0.00 | 0.00 | 0.00 | 82 | 1014.8 |
| 20260505150516 | 58 | 215 | 4.3 | 7.8 | 0.00 | 0.00 | 0.00 | 81 | 1014.7 |
| 20260505140511 | 54 | 193 | 4.3 | 7.0 | 0.00 | 0.00 | 0.00 | 88 | 1014.1 |
| 20260505125011 | 53 | 178 | 1.7 | 4.3 | 0.00 | 0.00 | 0.00 | 87 | 1013.5 |
| 20260505124530 | 53 | 233 | 1.7 | 5.2 | 0.00 | 0.00 | 0.00 | 87 | 1013.3 |
| 20260505124010 | 53 | 198 | 2.6 | 5.2 | 0.00 | 0.00 | 0.00 | 87 | 1013.2 |
| 20260505123514 | 53 | 210 | 1.7 | 5.2 | 0.00 | 0.00 | 0.00 | 87 | 1013.1 |
| 20260505123044 | 53 | 209 | 2.6 | 6.1 | 0.00 | 0.00 | 0.00 | 87 | 1013.1 |
| 20260505122512 | 53 | 224 | 2.6 | 6.1 | 0.00 | 0.00 | 0.00 | 87 | 1013.0 |
| 20260505122018 | 53 | 195 | 1.7 | 4.3 | 0.00 | 0.00 | 0.00 | 87 | 1012.9 |
| 20260505121528 | 53 | 205 | 1.7 | 4.3 | 0.00 | 0.00 | 0.00 | 87 | 1012.9 |
| 20260505121013 | 53 | 200 | 0.9 | 4.3 | 0.00 | 0.00 | 0.00 | 87 | 1012.8 |
| 20260505120513 | 53 | 211 | 1.7 | 4.3 | 0.00 | 0.00 | 0.00 | 87 | 1012.7 |
| 20260505120037 | 53 | 204 | 1.7 | 6.1 | 0.00 | 0.00 | 0.00 | 87 | 1012.7 |
| 20260505115512 | 53 | 207 | 0.9 | 6.1 | 0.00 | 0.00 | 0.00 | 86 | 1012.7 |
| 20260505115012 | 53 | 198 | 1.7 | 5.2 | 0.00 | 0.00 | 0.00 | 86 | 1012.4 |
| 20260505114531 | 53 | 198 | 1.7 | 5.2 | 0.00 | 0.00 | 0.00 | 86 | 1012.5 |
| 20260505114011 | 53 | 192 | 1.7 | 4.3 | 0.00 | 0.00 | 0.00 | 85 | 1012.4 |
| 20260505113512 | 53 | 221 | 0.0 | 4.3 | 0.00 | 0.00 | 0.00 | 85 | 1012.5 |
| 20260505113029 | 53 | 221 | 1.7 | 4.3 | 0.00 | 0.00 | 0.00 | 85 | 1012.4 |
| 20260505112515 | 54 | 208 | 1.7 | 4.3 | 0.00 | 0.00 | 0.00 | 84 | 1012.4 |
| 20260505112011 | 54 | 223 | 0.9 | 6.1 | 0.00 | 0.00 | 0.00 | 84 | 1012.4 |
| 20260505111533 | 54 | 196 | 1.7 | 6.1 | 0.00 | 0.00 | 0.00 | 84 | 1012.3 |
| 20260505111013 | 54 | 218 | 0.9 | 4.3 | 0.00 | 0.00 | 0.00 | 83 | 1012.2 |
| 20260505110510 | 54 | 194 | 1.7 | 4.3 | 0.00 | 0.00 | 0.00 | 83 | 1012.2 |